Time,TemperatureF,DewpointF,PressureIn,WindDirection,WindDirectionDegrees,WindSpeedMPH,WindSpeedGustMPH,Humidity,HourlyPrecipIn,Conditions,Clouds,dailyrainin,SoftwareType,DateUTC
2013-03-23 00:09:00,32.8,24.0,29.96,SSE,165,3.0,-999.0,71,-99.99,,,0.00,weatherlink.com 1.10,2013-03-23 04:09:00,
2013-03-23 00:24:00,32.7,25.0,29.96,East,100,0.0,-999.0,72,-99.99,,,0.00,weatherlink.com 1.10,2013-03-23 04:24:00,
2013-03-23 00:39:00,32.7,25.0,29.95,South,184,0.0,-999.0,73,-99.99,,,0.00,weatherlink.com 1.10,2013-03-23 04:39:00,
2013-03-23 00:54:00,32.7,25.0,29.95,South,169,2.0,-999.0,73,-99.99,,,0.00,weatherlink.com 1.10,2013-03-23 04:54:00,
2013-03-23 01:09:00,32.5,25.0,29.95,South,175,3.0,-999.0,74,-99.99,,,0.00,weatherlink.com 1.10,2013-03-23 05:09:00,
2013-03-23 01:24:00,32.4,25.0,29.94,South,181,1.0,-999.0,75,-99.99,,,0.00,weatherlink.com 1.10,2013-03-23 05:24:00,
2013-03-23 01:39:00,32.4,26.0,29.93,SSW,202,2.0,-999.0,76,-99.99,,,0.00,weatherlink.com 1.10,2013-03-23 05:39:00,
2013-03-23 01:54:00,32.7,26.0,29.92,SSW,202,2.0,-999.0,76,-99.99,,,0.00,weatherlink.com 1.10,2013-03-23 05:54:00,
2013-03-23 02:09:00,32.8,26.0,29.93,South,184,2.0,-999.0,76,-99.99,,,0.00,weatherlink.com 1.10,2013-03-23 06:09:00,
2013-03-23 02:24:00,32.7,26.0,29.92,West,275,0.0,-999.0,77,-99.99,,,0.00,weatherlink.com 1.10,2013-03-23 06:24:00,
2013-03-23 02:39:00,32.7,27.0,29.92,SSW,202,0.0,-999.0,78,-99.99,,,0.00,weatherlink.com 1.10,2013-03-23 06:39:00,
2013-03-23 02:54:00,32.4,27.0,29.91,SSW,212,2.0,-999.0,79,-99.99,,,0.00,weatherlink.com 1.10,2013-03-23 06:54:00,
2013-03-23 03:09:00,32.4,27.0,29.91,SSW,193,2.0,-999.0,80,-99.99,,,0.00,weatherlink.com 1.10,2013-03-23 07:09:00,
2013-03-23 03:24:00,32.7,28.0,29.91,South,182,2.0,-999.0,82,-99.99,,,0.00,weatherlink.com 1.10,2013-03-23 07:24:00,
2013-03-23 03:39:00,33.5,29.0,29.90,South,176,1.0,-999.0,82,-99.99,,,0.00,weatherlink.com 1.10,2013-03-23 07:39:00,
2013-03-23 03:54:00,34.1,29.0,29.91,SSW,198,0.0,-999.0,81,-99.99,,,0.00,weatherlink.com 1.10,2013-03-23 07:54:00,
2013-03-23 04:09:00,33.8,29.0,29.90,South,186,1.0,-999.0,82,-99.99,,,0.00,weatherlink.com 1.10,2013-03-23 08:09:00,
2013-03-23 04:24:00,34.0,29.0,29.89,SSW,196,2.0,-999.0,82,-99.99,,,0.00,weatherlink.com 1.10,2013-03-23 08:24:00,
2013-03-23 04:39:00,34.3,29.0,29.91,WSW,237,2.0,-999.0,82,-99.99,,,0.00,weatherlink.com 1.10,2013-03-23 08:39:00,
2013-03-23 04:54:00,34.1,30.0,29.90,SSW,209,0.0,-999.0,83,-99.99,,,0.00,weatherlink.com 1.10,2013-03-23 08:54:00,
2013-03-23 05:09:00,34.3,30.0,29.89,SW,232,0.0,-999.0,83,-99.99,,,0.00,weatherlink.com 1.10,2013-03-23 09:09:00,
2013-03-23 05:24:00,34.3,30.0,29.89,WSW,248,0.0,-999.0,83,-99.99,,,0.00,weatherlink.com 1.10,2013-03-23 09:24:00,
2013-03-23 05:39:00,34.0,29.0,29.91,WSW,248,0.0,-999.0,83,-99.99,,,0.00,weatherlink.com 1.10,2013-03-23 09:39:00,
2013-03-23 05:54:00,33.8,30.0,29.91,SSW,203,1.0,-999.0,84,-99.99,,,0.00,weatherlink.com 1.10,2013-03-23 09:54:00,
2013-03-23 06:09:00,33.7,29.0,29.92,SW,217,0.0,-999.0,84,-99.99,,,0.00,weatherlink.com 1.10,2013-03-23 10:09:00,
2013-03-23 06:25:00,34.1,30.0,29.92,SW,217,0.0,-999.0,84,-99.99,,,0.00,weatherlink.com 1.10,2013-03-23 10:25:00,
2013-03-23 06:55:00,34.7,30.0,29.93,SSW,200,0.0,-999.0,83,-99.99,,,0.00,weatherlink.com 1.10,2013-03-23 10:55:00,
2013-03-23 07:10:00,34.7,30.0,29.93,SSW,200,0.0,-999.0,82,-99.99,,,0.00,weatherlink.com 1.10,2013-03-23 11:10:00,
2013-03-23 07:25:00,34.4,30.0,29.93,WSW,239,0.0,-999.0,83,-99.99,,,0.00,weatherlink.com 1.10,2013-03-23 11:25:00,
2013-03-23 07:40:00,34.1,30.0,29.96,WSW,239,0.0,-999.0,84,-99.99,,,0.00,weatherlink.com 1.10,2013-03-23 11:40:00,
2013-03-23 07:55:00,34.3,30.0,29.96,WSW,239,0.0,-999.0,85,-99.99,,,0.00,weatherlink.com 1.10,2013-03-23 11:55:00,
2013-03-23 08:10:00,35.0,31.0,29.96,WSW,254,0.0,-999.0,84,-99.99,,,0.00,weatherlink.com 1.10,2013-03-23 12:10:00,
2013-03-23 08:25:00,35.6,32.0,29.96,WSW,254,0.0,-999.0,85,-99.99,,,0.00,weatherlink.com 1.10,2013-03-23 12:25:00,
2013-03-23 08:40:00,36.3,31.0,29.97,WSW,254,0.0,-999.0,82,-99.99,,,0.00,weatherlink.com 1.10,2013-03-23 12:40:00,
2013-03-23 08:55:00,36.8,32.0,29.97,WSW,254,0.0,-999.0,81,-99.99,,,0.00,weatherlink.com 1.10,2013-03-23 12:55:00,
2013-03-23 09:10:00,36.9,31.0,29.97,WSW,254,0.0,-999.0,80,-99.99,,,0.00,weatherlink.com 1.10,2013-03-23 13:10:00,
2013-03-23 09:25:00,37.0,31.0,29.98,WSW,254,0.0,-999.0,79,-99.99,,,0.00,weatherlink.com 1.10,2013-03-23 13:25:00,
2013-03-23 09:40:00,37.2,31.0,29.98,WSW,254,0.0,-999.0,79,-99.99,,,0.00,weatherlink.com 1.10,2013-03-23 13:40:00,
2013-03-23 09:55:00,37.3,31.0,29.98,WSW,254,0.0,-999.0,79,-99.99,,,0.00,weatherlink.com 1.10,2013-03-23 13:55:00,
2013-03-23 10:10:00,37.5,32.0,29.98,WSW,254,0.0,-999.0,79,-99.99,,,0.00,weatherlink.com 1.10,2013-03-23 14:10:00,
2013-03-23 10:25:00,37.9,32.0,29.97,NE,44,0.0,-999.0,78,-99.99,,,0.00,weatherlink.com 1.10,2013-03-23 14:25:00,
2013-03-23 10:40:00,37.9,32.0,29.97,NE,44,0.0,-999.0,79,-99.99,,,0.00,weatherlink.com 1.10,2013-03-23 14:40:00,
2013-03-23 10:55:00,37.8,32.0,29.98,NE,44,0.0,-999.0,80,-99.99,,,0.00,weatherlink.com 1.10,2013-03-23 14:55:00,
2013-03-23 11:10:00,37.5,33.0,29.99,ENE,68,0.0,-999.0,83,-99.99,,,0.00,weatherlink.com 1.10,2013-03-23 15:10:00,
2013-03-23 11:25:00,37.6,34.0,29.98,ENE,68,0.0,-999.0,85,-99.99,,,0.00,weatherlink.com 1.10,2013-03-23 15:25:00,
2013-03-23 11:40:00,37.6,33.0,29.98,NNW,330,2.0,-999.0,84,-99.99,,,0.00,weatherlink.com 1.10,2013-03-23 15:40:00,
2013-03-23 11:55:00,38.5,34.0,29.97,NNW,344,0.0,-999.0,83,-99.99,,,0.00,weatherlink.com 1.10,2013-03-23 15:55:00,
2013-03-23 12:10:00,38.6,31.0,29.96,ENE,71,0.0,-999.0,75,-99.99,,,0.00,weatherlink.com 1.10,2013-03-23 16:10:00,
2013-03-23 12:25:00,39.5,32.0,29.96,NNW,346,0.0,-999.0,74,-99.99,,,0.00,weatherlink.com 1.10,2013-03-23 16:25:00,
2013-03-23 12:40:00,39.9,32.0,29.96,NW,323,0.0,-999.0,73,-99.99,,,0.00,weatherlink.com 1.10,2013-03-23 16:40:00,
2013-03-23 12:55:00,40.3,32.0,29.95,North,356,0.0,-999.0,72,-99.99,,,0.00,weatherlink.com 1.10,2013-03-23 16:55:00,
2013-03-23 13:10:00,41.6,32.0,29.94,NNW,343,0.0,-999.0,69,-99.99,,,0.00,weatherlink.com 1.10,2013-03-23 17:10:00,
2013-03-23 13:25:00,42.6,31.0,29.93,NE,47,0.0,-999.0,65,-99.99,,,0.00,weatherlink.com 1.10,2013-03-23 17:25:00,
2013-03-23 13:40:00,43.2,33.0,29.93,NE,44,0.0,-999.0,67,-99.99,,,0.00,weatherlink.com 1.10,2013-03-23 17:40:00,
2013-03-23 13:55:00,44.3,32.0,29.92,North,10,0.0,-999.0,63,-99.99,,,0.00,weatherlink.com 1.10,2013-03-23 17:55:00,
2013-03-23 14:10:00,44.2,31.0,29.91,NE,35,0.0,-999.0,61,-99.99,,,0.00,weatherlink.com 1.10,2013-03-23 18:10:00,
2013-03-23 14:25:00,44.3,33.0,29.91,NE,47,2.0,-999.0,64,-99.99,,,0.00,weatherlink.com 1.10,2013-03-23 18:25:00,
2013-03-23 14:40:00,44.9,34.0,29.91,SSE,162,0.0,-999.0,65,-99.99,,,0.00,weatherlink.com 1.10,2013-03-23 18:40:00,
2013-03-23 14:55:00,45.7,34.0,29.90,NNW,328,1.0,-999.0,64,-99.99,,,0.00,weatherlink.com 1.10,2013-03-23 18:55:00,
2013-03-23 15:10:00,46.8,34.0,29.89,NNW,344,0.0,-999.0,61,-99.99,,,0.00,weatherlink.com 1.10,2013-03-23 19:10:00,
2013-03-23 15:25:00,47.3,33.0,29.89,North,7,0.0,-999.0,58,-99.99,,,0.00,weatherlink.com 1.10,2013-03-23 19:25:00,
2013-03-23 15:40:00,47.4,33.0,29.88,NW,323,0.0,-999.0,57,-99.99,,,0.00,weatherlink.com 1.10,2013-03-23 19:40:00,
2013-03-23 15:55:00,47.3,36.0,29.87,SW,227,0.0,-999.0,65,-99.99,,,0.00,weatherlink.com 1.10,2013-03-23 19:55:00,
2013-03-23 16:10:00,47.0,36.0,29.87,West,278,0.0,-999.0,67,-99.99,,,0.00,weatherlink.com 1.10,2013-03-23 20:10:00,
2013-03-23 16:25:00,47.3,37.0,29.87,North,4,0.0,-999.0,68,-99.99,,,0.00,weatherlink.com 1.10,2013-03-23 20:25:00,
2013-03-23 16:40:00,47.7,38.0,29.86,SSW,202,0.0,-999.0,69,-99.99,,,0.00,weatherlink.com 1.10,2013-03-23 20:40:00,
2013-03-23 16:55:00,47.6,38.0,29.85,WNW,301,0.0,-999.0,69,-99.99,,,0.00,weatherlink.com 1.10,2013-03-23 20:55:00,
2013-03-23 17:10:00,47.0,38.0,29.85,NW,306,0.0,-999.0,71,-99.99,,,0.00,weatherlink.com 1.10,2013-03-23 21:10:00,
2013-03-23 17:25:00,46.8,38.0,29.86,SW,229,0.0,-999.0,71,-99.99,,,0.00,weatherlink.com 1.10,2013-03-23 21:25:00,
2013-03-23 17:40:00,47.1,38.0,29.85,North,0,0.0,-999.0,71,-99.99,,,0.00,weatherlink.com 1.10,2013-03-23 21:40:00,
2013-03-23 17:55:00,48.2,38.0,29.84,NW,306,0.0,-999.0,69,-99.99,,,0.00,weatherlink.com 1.10,2013-03-23 21:55:00,
2013-03-23 18:10:00,48.6,39.0,29.84,West,261,0.0,-999.0,69,-99.99,,,0.00,weatherlink.com 1.10,2013-03-23 22:10:00,
2013-03-23 18:25:00,47.9,39.0,29.84,WNW,294,0.0,-999.0,70,-99.99,,,0.00,weatherlink.com 1.10,2013-03-23 22:25:00,
2013-03-23 18:41:00,47.1,38.0,29.85,West,277,0.0,-999.0,71,-99.99,,,0.00,weatherlink.com 1.10,2013-03-23 22:41:00,
2013-03-23 18:56:00,46.1,38.0,29.85,SW,223,0.0,-999.0,73,-99.99,,,0.00,weatherlink.com 1.10,2013-03-23 22:56:00,
2013-03-23 19:11:00,45.2,37.0,29.86,SW,227,0.0,-999.0,74,-99.99,,,0.00,weatherlink.com 1.10,2013-03-23 23:11:00,
2013-03-23 19:26:00,44.5,37.0,29.86,SW,232,0.0,-999.0,76,-99.99,,,0.00,weatherlink.com 1.10,2013-03-23 23:26:00,
2013-03-23 19:41:00,43.6,37.0,29.86,SW,232,0.0,-999.0,77,-99.99,,,0.00,weatherlink.com 1.10,2013-03-23 23:41:00,
2013-03-23 19:56:00,42.6,36.0,29.88,SW,232,0.0,-999.0,78,-99.99,,,0.00,weatherlink.com 1.10,2013-03-23 23:56:00,
2013-03-23 20:11:00,41.5,36.0,29.88,SW,232,0.0,-999.0,81,-99.99,,,0.00,weatherlink.com 1.10,2013-03-24 00:11:00,
2013-03-23 20:26:00,41.1,36.0,29.89,SW,232,0.0,-999.0,82,-99.99,,,0.00,weatherlink.com 1.10,2013-03-24 00:26:00,
2013-03-23 20:41:00,40.1,35.0,29.89,SW,232,0.0,-999.0,82,-99.99,,,0.00,weatherlink.com 1.10,2013-03-24 00:41:00,
2013-03-23 20:56:00,39.5,35.0,29.89,SW,232,0.0,-999.0,84,-99.99,,,0.00,weatherlink.com 1.10,2013-03-24 00:56:00,
2013-03-23 21:11:00,39.5,35.0,29.89,SW,232,0.0,-999.0,85,-99.99,,,0.00,weatherlink.com 1.10,2013-03-24 01:11:00,
2013-03-23 21:26:00,39.5,35.0,29.89,SW,232,0.0,-999.0,85,-99.99,,,0.00,weatherlink.com 1.10,2013-03-24 01:26:00,
2013-03-23 21:41:00,38.9,35.0,29.89,SW,232,0.0,-999.0,85,-99.99,,,0.00,weatherlink.com 1.10,2013-03-24 01:41:00,
2013-03-23 21:56:00,38.2,35.0,29.89,SW,232,0.0,-999.0,87,-99.99,,,0.00,weatherlink.com 1.10,2013-03-24 01:56:00,
2013-03-23 22:11:00,37.6,34.0,29.90,SW,232,0.0,-999.0,88,-99.99,,,0.00,weatherlink.com 1.10,2013-03-24 02:11:00,
2013-03-23 22:26:00,37.6,35.0,29.88,SW,232,0.0,-999.0,89,-99.99,,,0.00,weatherlink.com 1.10,2013-03-24 02:26:00,
2013-03-23 22:41:00,37.9,35.0,29.89,SW,232,0.0,-999.0,88,-99.99,,,0.00,weatherlink.com 1.10,2013-03-24 02:41:00,
2013-03-23 22:56:00,38.2,34.0,29.88,SW,232,0.0,-999.0,84,-99.99,,,0.00,weatherlink.com 1.10,2013-03-24 02:56:00,
2013-03-23 23:57:00,39.1,32.0,29.86,ENE,78,0.0,-999.0,76,-99.99,,,0.00,weatherlink.com 1.10,2013-03-24 03:57:00,